Weather in Ashevo

Russia / Pskov Oblast     57°06′45″N   29°44′52″E
temp.,
°C
wind,
m/s
gust,
m/s
humid.,
%
clouds,
%
prec.,
mm/h
press.,
hPa
HPBL,
m
14 august, sun
sun1400:00+16se01795 0.0 102111
03:00+15e11835 0.0 102111
06:00+14ese12855 0.0 102111
09:00+21e22657 0.0 1020284
12:00+26ese23457 0.0 10201034
15:00+28e233823 0.0 10191633
18:00+27ene234722 0.0 10181136
21:00+20e227345 0.0 101812
15 august, mon
mon1500:00+17e22815 0.0 101915
03:00+16ese227589 0.0 101817
06:00+16ese227720 0.0 101933
09:00+22ese356477 0.0 1019310
12:00+27se45515 0.0 10181039
15:00+29se344291 0.0 10172385
18:00+24ese2259100 0.0 101748
21:00+21se36687 0.0 1017101
16 august, tue
tue1600:00+18ese34736 0.0 101866
03:00+17se2381100 0.0 101854
06:00+16ese3787100 0.0 1017123
09:00+22ese3567100 0.0 1017311
12:00+26se3453100 0.0 1017733
15:00+27ene2452100 0.0 1017980
18:00+27n1355100 0.0 1016560
21:00+20sse3974100 0.1 1017199
17 august, wed
wed1700:00+21ese3966100 0.0 1017268
03:00+20se3871100 0.0 1017196
06:00+18se2578100 0.0 1017101
09:00+22ese3657100 0.0 1017307
12:00+26ese3544100 0.0 1017902
15:00+29ese4533100 0.0 10161730
18:00+27ese3644100 0.0 1016705
21:00+21ese3663100 0.0 101696
18 august, thu
thu1800:00+19e2274100 0.0 101735
03:00+17e2282100 0.0 101733
06:00+17e2483100 0.0 101778
09:00+23ese365978 0.0 1017320
12:00+28ese463933 0.0 1017916
15:00+30ese463268 0.0 10161624
18:00+29ese473913 0.0 1016914
21:00+21ese3116521 0.0 1017229